Weather History for Glenwood, MN

Change the Weather History Date:

Friday, February 7, 2014

  Actual Average Record
Temperature  
Mean Temperature -2 °F -  
Max Temperature 10 °F 22 °F 50 °F (1987)
Min Temperature -13 °F 1 °F -29 °F (1971)
Degree Days  
Heating Degree Days 66    
Moisture  
Dew Point -10 °F    
Average Humidity 71    
Maximum Humidity 85    
Minimum Humidity 52    
Precipitation  
Precipitation 0.00 in - - ()
Sea Level Pressure  
Sea Level Pressure 30.07 in    
Wind  
Wind Speed 11 mph (SW)    
Max Wind Speed 20 mph    
Max Gust Speed 22 mph    
Visibility 10 miles    
Events      
Averages and records for this station are not official NWS values.
T = Trace of Precipitation, MM = Missing Value Source: NWS Daily Summary

Daily Weather History Graph

Daily Weather History Graph

Search for Another Location

Airport:

Trip Planner

Search our weather history database for the weather conditions in past years. The results will help you decide how hot, cold, wet, or windy it might be!

Date:

Astronomy

Feb. 07, 2014 Rise Set
Actual Time 7:34 AM CST 5:36 PM CST
Civil Twilight 7:03 AM CST 6:07 PM CST
Nautical Twilight 6:28 AM CST 6:42 PM CST
Astronomical Twilight 5:54 AM CST 7:17 PM CST
Moon 11:45 AM CST (2/7) 1:54 AM CST (2/7)
Length of Visible Light 11h 03m
Length of Day
10h 01m
First Quarter, 59% of the Moon is Illuminated
Feb 7
First Quarter
Feb 14
Full
Feb 22
Last Quarter
Mar 1
New
Mar 8
First Quarter

Hourly Weather History & Observations

Time (CST) Temp. Windchill Dew Point Humidity Pressure Visibility Wind Dir Wind Speed Gust Speed Precip Events Conditions
12:14 AM -5.8 °F -25.2 °F -9.4 °F 84% 30.12 in 10.0 mi WSW 12.7 mph - N/A   Clear
12:33 AM -5.8 °F -25.2 °F -9.4 °F 84% 30.12 in 10.0 mi WSW 12.7 mph - N/A   Clear
12:53 AM -7.6 °F -26.6 °F -11.2 °F 84% 30.12 in 10.0 mi WSW 11.5 mph - N/A   Clear
1:13 AM -7.6 °F -25.7 °F -11.2 °F 84% 30.11 in 10.0 mi WSW 10.4 mph - N/A   Clear
1:33 AM -7.6 °F -26.6 °F -11.2 °F 84% 30.11 in 10.0 mi WSW 11.5 mph - N/A   Clear
1:53 AM -7.6 °F -26.6 °F -13.0 °F 77% 30.10 in 10.0 mi WSW 11.5 mph - N/A   Clear
2:13 AM -7.6 °F -26.6 °F -13.0 °F 77% 30.10 in 10.0 mi WSW 11.5 mph - N/A   Clear
2:34 AM -7.6 °F -27.5 °F -13.0 °F 77% 30.09 in 10.0 mi WSW 12.7 mph - N/A   Clear
2:53 AM -9.4 °F -27.9 °F -13.0 °F 84% 30.09 in 10.0 mi WSW 10.4 mph - N/A   Clear
3:13 AM -9.4 °F -27.9 °F -14.8 °F 77% 30.08 in 10.0 mi WSW 10.4 mph - N/A   Clear
3:33 AM -9.4 °F -28.9 °F -14.8 °F 77% 30.08 in 10.0 mi WSW 11.5 mph - N/A   Clear
3:53 AM -9.4 °F -28.9 °F -14.8 °F 77% 30.08 in 10.0 mi WSW 11.5 mph - N/A   Clear
4:14 AM -9.4 °F -26.8 °F -14.8 °F 77% 30.08 in 10.0 mi SW 9.2 mph - N/A   Clear
4:33 AM -11.2 °F -29.0 °F -16.6 °F 77% 30.08 in 10.0 mi WSW 9.2 mph - N/A   Clear
4:53 AM -9.4 °F -27.9 °F -14.8 °F 77% 30.08 in 10.0 mi WSW 10.4 mph - N/A   Clear
5:13 AM -9.4 °F -26.8 °F -16.6 °F 71% 30.07 in 10.0 mi WSW 9.2 mph - N/A   Clear
5:33 AM -11.2 °F -31.1 °F -16.6 °F 77% 30.07 in 10.0 mi WSW 11.5 mph - N/A   Clear
5:54 AM -11.2 °F -30.1 °F -16.6 °F 77% 30.07 in 10.0 mi WSW 10.4 mph - N/A   Clear
6:13 AM -11.2 °F -29.0 °F -16.6 °F 77% 30.07 in 10.0 mi WSW 9.2 mph - N/A   Clear
6:33 AM -11.2 °F -29.0 °F -16.6 °F 77% 30.07 in 10.0 mi WSW 9.2 mph - N/A   Clear
6:53 AM -11.2 °F -26.4 °F -16.6 °F 77% 30.07 in 10.0 mi WSW 6.9 mph - N/A   Clear
7:13 AM -11.2 °F -27.8 °F -16.6 °F 77% 30.06 in 10.0 mi SW 8.1 mph - N/A   Clear
7:34 AM -13.0 °F -32.4 °F -18.4 °F 77% 30.06 in 10.0 mi SW 10.4 mph - N/A   Clear
7:53 AM -13.0 °F -30.0 °F -18.4 °F 77% 30.06 in 10.0 mi SW 8.1 mph - N/A   Clear
8:13 AM -13.0 °F -31.3 °F -18.4 °F 77% 30.07 in 10.0 mi SW 9.2 mph - N/A   Clear
8:33 AM -11.2 °F -31.1 °F -18.4 °F 70% 30.07 in 10.0 mi SSW 11.5 mph - N/A   Clear
8:53 AM -9.4 °F -26.8 °F -16.6 °F 71% 30.08 in 10.0 mi SSW 9.2 mph - N/A   Clear
9:14 AM -7.6 °F -22.1 °F -14.8 °F 71% 30.08 in 10.0 mi SW 6.9 mph - N/A   Clear
9:33 AM -5.8 °F -23.4 °F -14.8 °F 65% 30.08 in 10.0 mi SW 10.4 mph - N/A   Clear
9:53 AM -5.8 °F -24.4 °F -14.8 °F 65% 30.08 in 10.0 mi SW 11.5 mph - N/A   Clear
10:13 AM -4.0 °F -25.2 °F -14.8 °F 60% 30.08 in 10.0 mi WSW 16.1 mph - N/A   Clear
10:33 AM -2.2 °F -23.5 °F -13.0 °F 60% 30.09 in 10.0 mi WSW 17.3 mph - N/A   Clear
10:53 AM -2.2 °F -23.5 °F -11.2 °F 66% 30.09 in 10.0 mi SW 17.3 mph - N/A   Clear
11:13 AM -0.4 °F -19.2 °F -11.2 °F 60% 30.09 in 10.0 mi WSW 13.8 mph - N/A   Clear
11:33 AM 1.4 °F -18.8 °F -11.2 °F 56% 30.09 in 10.0 mi WSW 17.3 mph - N/A   Clear
11:53 AM 1.4 °F -18.8 °F -9.4 °F 61% 30.08 in 10.0 mi SW 17.3 mph - N/A   Clear
12:13 PM 1.4 °F -18.8 °F -9.4 °F 61% 30.08 in 10.0 mi WSW 17.3 mph - N/A   Clear
12:34 PM 3.2 °F -15.9 °F -7.6 °F 61% 30.07 in 10.0 mi WSW 16.1 mph - N/A   Clear
12:53 PM 5.0 °F -13.0 °F -7.6 °F 56% 30.07 in 10.0 mi WSW 15.0 mph 21.9 mph N/A   Clear
1:13 PM 6.8 °F -12.4 °F -5.8 °F 56% 30.07 in 10.0 mi WSW 18.4 mph - N/A   Clear
1:33 PM 6.8 °F -11.8 °F -5.8 °F 56% 30.06 in 10.0 mi WSW 17.3 mph - N/A   Clear
1:53 PM 8.6 °F -9.5 °F -4.0 °F 57% 30.05 in 10.0 mi SW 17.3 mph - N/A   Clear
2:14 PM 8.6 °F -10.5 °F -4.0 °F 57% 30.05 in 10.0 mi SW 19.6 mph - N/A   Clear
2:33 PM 8.6 °F -8.9 °F -4.0 °F 57% 30.05 in 10.0 mi WSW 16.1 mph - N/A   Clear
2:54 PM 10.4 °F -6.0 °F -4.0 °F 52% 30.05 in 10.0 mi WSW 15.0 mph - N/A   Clear
3:13 PM 10.4 °F -7.2 °F -4.0 °F 52% 30.05 in 10.0 mi SW 17.3 mph - N/A   Clear
3:33 PM 10.4 °F -6.0 °F -4.0 °F 52% 30.05 in 10.0 mi WSW 15.0 mph - N/A   Clear
3:53 PM 8.6 °F -7.0 °F -4.0 °F 57% 30.06 in 10.0 mi SW 12.7 mph - N/A   Clear
4:13 PM 8.6 °F -7.7 °F -2.2 °F 62% 30.06 in 10.0 mi SSW 13.8 mph - N/A   Clear
4:34 PM 6.8 °F -7.8 °F -2.2 °F 67% 30.06 in 10.0 mi SW 10.4 mph - N/A   Clear
4:53 PM 6.8 °F -6.9 °F -2.2 °F 67% 30.06 in 10.0 mi SW 9.2 mph - N/A   Clear
5:13 PM 5.0 °F -10.8 °F -4.0 °F 66% 30.06 in 10.0 mi SW 11.5 mph - N/A   Clear
5:34 PM 3.2 °F -10.3 °F -5.8 °F 66% 30.06 in 10.0 mi SSW 8.1 mph - N/A   Clear
5:53 PM 1.4 °F -8.3 °F -7.6 °F 66% 30.07 in 10.0 mi SSW 4.6 mph - N/A   Clear
6:13 PM 1.4 °F -9.9 °F -5.8 °F 72% 30.07 in 10.0 mi SSW 5.8 mph - N/A   Clear
6:33 PM -0.4 °F -12.0 °F -7.6 °F 72% 30.07 in 10.0 mi SSW 5.8 mph - N/A   Clear
6:53 PM 1.4 °F -6.2 °F -5.8 °F 72% 30.07 in 10.0 mi SSW 3.5 mph - N/A   Clear
7:14 PM 1.4 °F -6.2 °F -5.8 °F 72% 30.07 in 10.0 mi SSW 3.5 mph - N/A   Clear
7:33 PM 1.4 °F -6.2 °F -5.8 °F 72% 30.07 in 10.0 mi SSW 3.5 mph - N/A   Clear
7:53 PM 1.4 °F -6.2 °F -5.8 °F 72% 30.07 in 10.0 mi South 3.5 mph - N/A   Clear
8:13 PM 1.4 °F -6.2 °F -5.8 °F 72% 30.07 in 10.0 mi South 3.5 mph - N/A   Clear
8:33 PM 1.4 °F - -5.8 °F 72% 30.07 in 10.0 mi Calm Calm - N/A   Clear
8:54 PM -0.4 °F -8.3 °F -5.8 °F 78% 30.07 in 10.0 mi South 3.5 mph - N/A   Clear
9:13 PM -0.4 °F -10.4 °F -5.8 °F 78% 30.06 in 10.0 mi South 4.6 mph - N/A   Clear
9:33 PM -0.4 °F -10.4 °F -5.8 °F 78% 30.06 in 10.0 mi South 4.6 mph - N/A   Clear
9:53 PM -2.2 °F -14.2 °F -7.6 °F 78% 30.06 in 10.0 mi South 5.8 mph - N/A   Clear
10:13 PM -2.2 °F -15.6 °F -5.8 °F 85% 30.05 in 10.0 mi South 6.9 mph - N/A   Clear
10:33 PM -2.2 °F -14.2 °F -5.8 °F 85% 30.05 in 10.0 mi South 5.8 mph - N/A   Clear
10:53 PM -2.2 °F -12.5 °F -5.8 °F 85% 30.05 in 10.0 mi South 4.6 mph - N/A   Clear
11:13 PM -2.2 °F -10.4 °F -5.8 °F 85% 30.04 in 10.0 mi South 3.5 mph - N/A   Clear
11:34 PM -2.2 °F - -5.8 °F 85% 30.05 in 10.0 mi Calm Calm - N/A   Clear
11:53 PM -2.2 °F -10.4 °F -5.8 °F 85% 30.06 in 10.0 mi South 3.5 mph - N/A   Clear